Flag for Hong Kong Weather past 2 weeks in Kowloon, Hong Kong

Now
82 °F

Passing clouds.


Feels Like: 89 °F
Forecast: 84 / 89 °F
Wind: 2 mph from North

Location: National Airport

Current Time: Jul 29, 2015 at 4:08:51 AM

Latest Report: Jul 29, 2015 at 3:30 AM


Visibility: N/A

Pressure: 29.83 "Hg

Humidity: 79%

Dew point: 75 °F

Location of KowloonLocation

Historic Weather in Kowloon — Graph

°F

Kowloon temperature yesterday

Maximum temperature yesterday: 91 °F (at 1:00 PM)
Minimum temperature yesterday: 82 °F (at 1:30 AM)
Average temperature yesterday: 85 °F

Past Weeks' High & Low Weather Summary

 TemperatureHumidityPressure
High95 °F (Jul 19, 1:00 PM)94% (Jul 17, 5:30 AM)29.92 "Hg (Jul 17, 5:30 AM)
Low77 °F (Jul 17, 8:30 AM)47% (Jul 19, 11:30 AM)29.47 "Hg (Jul 15, 4:00 PM)
Average85 °F75%29.67 "Hg
* Reported Jul 14 2:00 AM — Jul 29 2:30 AM, Kowloon, Weather by CustomWeather, © 2015

Note: Actual official high and low records may vary slightly from our data, if they occured in-between our weather recording intervals... More about our weather records

Advertising

Kowloon weather history for previous 24 hours

 ConditionsComfort  
Time TempWeatherWind HumidityBarometerVisibility
2:30 AM
Wed, Jul 29
84 °FPassing clouds.3 mph70%29.86 "HgN/A
2:00 AM82 °FPassing clouds.7 mph79%29.86 "HgN/A
1:30 AM82 °FPassing clouds.2 mph79%29.89 "HgN/A
1:00 AM84 °FPassing clouds.5 mph74%29.89 "HgN/A
12:30 AM84 °FPassing clouds.7 mph70%29.89 "HgN/A
12:00 AM84 °FPassing clouds.5 mph74%29.92 "HgN/A
11:30 PM
Tue, Jul 28
84 °FPassing clouds.7 mph70%29.92 "HgN/A
11:00 PM84 °FPassing clouds.6 mph74%29.92 "HgN/A
10:30 PM84 °FPassing clouds.8 mph74%29.92 "HgN/A
10:00 PM84 °FPassing clouds.5 mph79%29.92 "HgN/A
9:30 PM84 °FPassing clouds.5 mph79%29.92 "HgN/A
9:00 PM84 °FPassing clouds.7 mph74%29.89 "HgN/A
8:30 PM84 °FPassing clouds.8 mph74%29.89 "HgN/A
8:00 PM84 °FPassing clouds.9 mph74%29.89 "HgN/A
7:30 PM84 °FPassing clouds.12 mph70%29.86 "HgN/A
7:00 PM84 °FPassing clouds.8 mph74%29.86 "HgN/A
6:30 PM84 °FPassing clouds.9 mph74%29.86 "HgN/A
6:00 PM86 °FPassing clouds.9 mph70%29.86 "HgN/A
5:30 PM86 °FPassing clouds.12 mph66%29.83 "HgN/A
5:00 PM86 °FPassing clouds.12 mph66%29.83 "HgN/A
4:30 PM86 °FSprinkles. Scattered clouds.17 mph66%29.83 "HgN/A
4:00 PM88 °FPassing clouds.13 mph66%29.83 "HgN/A
3:30 PM88 °FPassing clouds.14 mph66%29.86 "HgN/A
3:00 PM90 °FPassing clouds.14 mph63%29.86 "HgN/A
2:30 PM90 °FPassing clouds.16 mph59%29.86 "HgN/A
2:00 PM90 °FPassing clouds.15 mph59%29.86 "HgN/A
1:30 PM90 °FPassing clouds.15 mph59%29.86 "HgN/A
1:00 PM91 °FPassing clouds.12 mph56%29.89 "HgN/A
12:30 PM90 °FPassing clouds.6 mph59%29.89 "HgN/A
12:00 PM90 °FPassing clouds.6 mph59%29.89 "HgN/A
11:30 AM90 °FScattered clouds.7 mph59%29.89 "HgN/A
11:00 AM86 °FScattered clouds.3 mph70%29.89 "HgN/A
10:30 AM86 °FScattered clouds.3 mph70%29.89 "HgN/A
10:00 AM86 °FScattered clouds.5 mph70%29.89 "HgN/A
9:30 AM86 °FScattered clouds.6 mph66%29.89 "HgN/A
9:00 AM86 °FScattered clouds.7 mph70%29.89 "HgN/A
8:30 AM86 °FScattered clouds.5 mph70%29.89 "HgN/A
8:00 AM84 °FPassing clouds.3 mph70%29.89 "HgN/A
7:30 AM84 °FPassing clouds.3 mph74%29.89 "HgN/A
7:00 AM84 °FPassing clouds.2 mph74%29.89 "HgN/A
6:30 AM82 °FPassing clouds.5 mph74%29.86 "HgN/A
6:00 AM82 °FPassing clouds.3 mph74%29.86 "HgN/A
5:30 AM82 °FPassing clouds.6 mph74%29.86 "HgN/A
5:00 AM82 °FPassing clouds.5 mph74%29.86 "HgN/A
4:30 AM84 °FPassing clouds.3 mph70%29.86 "HgN/A
4:00 AM82 °FPassing clouds.6 mph74%29.86 "HgN/A
Weather by CustomWeather, © 2015

See weather overviewHow to use our weather pages